| time (UTC) | temp F | wind direction | speed knots | gust knots | rain 1hr in | rain 24hr in | rain mn in | humidity % | barometer mb |
| 20260905134012 | 51 | 19 | 0.0 | 1.7 | 0.00 | 0.04 | 0.01 | 93 | 1018.0 |
| 20260905133512 | 51 | 5 | 0.0 | 1.7 | 0.00 | 0.04 | 0.01 | 93 | 1018.0 |
| 20260905133039 | 51 | 5 | 0.0 | 1.7 | 0.00 | 0.04 | 0.01 | 93 | 1018.0 |
| 20260905132515 | 51 | 5 | 0.0 | 1.7 | 0.00 | 0.04 | 0.01 | 93 | 1018.0 |
| 20260905132015 | 51 | 5 | 0.0 | 1.7 | 0.00 | 0.04 | 0.01 | 93 | 1018.0 |
| 20260905131535 | 51 | 5 | 0.0 | 1.7 | 0.00 | 0.04 | 0.01 | 93 | 1018.0 |
| 20260905131012 | 51 | 5 | 0.0 | 1.7 | 0.00 | 0.04 | 0.01 | 93 | 1018.0 |
| 20260905130512 | 51 | 5 | 0.0 | 1.7 | 0.00 | 0.04 | 0.01 | 93 | 1018.0 |
| 20260905130018 | 51 | 5 | 0.0 | 1.7 | 0.00 | 0.04 | 0.01 | 93 | 1018.0 |
| 20260905125508 | 51 | 5 | 0.0 | 1.7 | 0.00 | 0.04 | 0.01 | 93 | 1018.0 |
| 20260905125012 | 51 | 352 | 0.0 | 1.7 | 0.00 | 0.04 | 0.01 | 93 | 1017.9 |
| 20260905124528 | 51 | 326 | 0.0 | 1.7 | 0.00 | 0.04 | 0.01 | 93 | 1017.9 |
| 20260905124011 | 51 | 326 | 0.0 | 1.7 | 0.00 | 0.04 | 0.01 | 93 | 1017.9 |
| 20260905123512 | 51 | 326 | 0.0 | 1.7 | 0.00 | 0.04 | 0.01 | 93 | 1017.8 |
| 20260905123030 | 51 | 326 | 0.0 | 1.7 | 0.00 | 0.04 | 0.01 | 93 | 1017.8 |
| 20260905122516 | 51 | 330 | 0.0 | 1.7 | 0.00 | 0.04 | 0.01 | 93 | 1017.8 |
| 20260905122015 | 51 | 83 | 0.0 | 1.7 | 0.00 | 0.04 | 0.01 | 93 | 1017.8 |
| 20260905121527 | 51 | 83 | 0.0 | 1.7 | 0.00 | 0.04 | 0.01 | 93 | 1017.8 |
| 20260905121016 | 51 | 83 | 0.0 | 1.7 | 0.00 | 0.04 | 0.01 | 93 | 1017.7 |
| 20260905120517 | 51 | 83 | 0.0 | 1.7 | 0.00 | 0.04 | 0.01 | 93 | 1017.8 |
| 20260905120031 | 51 | 83 | 0.0 | 0.0 | 0.00 | 0.04 | 0.01 | 93 | 1017.8 |
| 20260905115515 | 51 | 83 | 0.0 | 1.7 | 0.00 | 0.04 | 0.01 | 93 | 1017.7 |
| 20260905115015 | 51 | 83 | 0.0 | 1.7 | 0.00 | 0.04 | 0.01 | 93 | 1017.8 |
| 20260905114525 | 51 | 81 | 0.0 | 1.7 | 0.00 | 0.04 | 0.01 | 93 | 1017.8 |
| 20260905114012 | 51 | 82 | 0.0 | 1.7 | 0.00 | 0.04 | 0.01 | 93 | 1017.7 |
| 20260905113513 | 52 | 80 | 0.0 | 1.7 | 0.00 | 0.04 | 0.01 | 93 | 1017.8 |
| 20260905113004 | 52 | 81 | 0.0 | 1.7 | 0.00 | 0.04 | 0.01 | 93 | 1017.8 |
| 20260905112504 | 52 | 53 | 0.0 | 1.7 | 0.00 | 0.04 | 0.01 | 93 | 1017.8 |
| 20260905112005 | 52 | 26 | 0.0 | 1.7 | 0.00 | 0.04 | 0.01 | 93 | 1017.7 |
| 20260905111511 | 52 | 26 | 0.0 | 1.7 | 0.00 | 0.04 | 0.01 | 92 | 1017.7 |
| 20260905111006 | 52 | 26 | 0.0 | 1.7 | 0.00 | 0.04 | 0.01 | 92 | 1017.7 |
| 20260905110504 | 52 | 26 | 0.0 | 1.7 | 0.00 | 0.04 | 0.01 | 92 | 1017.7 |
| 20260905110030 | 52 | 26 | 0.0 | 1.7 | 0.00 | 0.04 | 0.01 | 92 | 1017.6 |
| 20260905105505 | 52 | 26 | 0.0 | 1.7 | 0.00 | 0.04 | 0.01 | 92 | 1017.6 |
| 20260905105006 | 52 | 22 | 0.0 | 1.7 | 0.00 | 0.04 | 0.01 | 93 | 1017.7 |
| 20260905104521 | 53 | 22 | 0.0 | 1.7 | 0.00 | 0.04 | 0.01 | 93 | 1017.7 |
| 20260905104008 | 53 | 22 | 0.0 | 1.7 | 0.00 | 0.04 | 0.01 | 93 | 1017.7 |
| 20260905103512 | 53 | 10 | 0.0 | 1.7 | 0.00 | 0.04 | 0.01 | 93 | 1017.7 |
| 20260905103026 | 53 | 10 | 0.0 | 1.7 | 0.00 | 0.04 | 0.01 | 93 | 1017.7 |
| 20260905102518 | 53 | 10 | 0.0 | 1.7 | 0.00 | 0.04 | 0.01 | 93 | 1017.8 |
| 20260905102016 | 53 | 10 | 0.0 | 0.0 | 0.00 | 0.04 | 0.01 | 93 | 1017.8 |
| 20260905101504 | 53 | 10 | 0.0 | 1.7 | 0.00 | 0.04 | 0.01 | 93 | 1017.8 |
| 20260905101003 | 53 | 10 | 0.0 | 1.7 | 0.01 | 0.04 | 0.01 | 93 | 1017.8 |
| 20260905100503 | 53 | 10 | 0.0 | 0.9 | 0.01 | 0.04 | 0.01 | 93 | 1017.7 |
| 20260905100008 | 53 | 40 | 0.0 | 0.0 | 0.01 | 0.04 | 0.01 | 93 | 1017.7 |
| 20260905095506 | 53 | 40 | 0.0 | 0.0 | 0.01 | 0.04 | 0.01 | 93 | 1017.7 |
| 20260905095009 | 53 | 40 | 0.0 | 0.9 | 0.01 | 0.04 | 0.01 | 93 | 1017.6 |
| 20260905094519 | 53 | 40 | 0.0 | 1.7 | 0.01 | 0.04 | 0.01 | 93 | 1017.6 |
| 20260905094010 | 53 | 81 | 0.0 | 1.7 | 0.01 | 0.04 | 0.01 | 93 | 1017.5 |
| 20260905093510 | 53 | 33 | 0.0 | 1.7 | 0.01 | 0.04 | 0.01 | 93 | 1017.5 |
| 20260905093023 | 53 | 46 | 0.0 | 0.9 | 0.01 | 0.04 | 0.01 | 93 | 1017.4 |
| 20260905092514 | 53 | 91 | 0.0 | 0.0 | 0.01 | 0.04 | 0.01 | 93 | 1017.4 |
| 20260905092014 | 53 | 91 | 0.0 | 1.7 | 0.01 | 0.04 | 0.01 | 93 | 1017.4 |
| 20260905091528 | 53 | 91 | 0.0 | 1.7 | 0.01 | 0.05 | 0.01 | 93 | 1017.3 |
| 20260905091016 | 53 | 55 | 0.0 | 0.0 | 0.00 | 0.04 | 0.00 | 93 | 1017.3 |
| 20260905090515 | 53 | 55 | 0.0 | 0.0 | 0.00 | 0.04 | 0.00 | 92 | 1017.3 |
| 20260905090016 | 53 | 55 | 0.0 | 0.0 | 0.00 | 0.04 | 0.00 | 92 | 1017.2 |
| 20260905085503 | 53 | 55 | 0.0 | 1.7 | 0.00 | 0.04 | 0.00 | 92 | 1017.2 |
| 20260905085005 | 53 | 55 | 0.0 | 1.7 | 0.00 | 0.04 | 0.00 | 92 | 1017.1 |
| 20260905084514 | 53 | 55 | 0.0 | 1.7 | 0.00 | 0.04 | 0.00 | 92 | 1017.1 |
| 20260905084008 | 54 | 55 | 0.0 | 0.9 | 0.00 | 0.04 | 0.00 | 92 | 1017.0 |
| 20260905083510 | 54 | 55 | 0.0 | 1.7 | 0.00 | 0.04 | 0.00 | 92 | 1017.0 |
| 20260905083020 | 54 | 55 | 0.0 | 1.7 | 0.00 | 0.04 | 0.00 | 92 | 1017.1 |
| 20260905082511 | 54 | 87 | 0.0 | 0.0 | 0.00 | 0.04 | 0.00 | 92 | 1017.0 |
| 20260905082013 | 54 | 87 | 0.0 | 0.0 | 0.00 | 0.04 | 0.00 | 92 | 1017.0 |
| 20260905081526 | 54 | 87 | 0.0 | 0.0 | 0.00 | 0.04 | 0.00 | 92 | 1017.0 |
| 20260905081015 | 54 | 87 | 0.0 | 0.0 | 0.00 | 0.04 | 0.00 | 92 | 1017.0 |
| 20260905080512 | 54 | 87 | 0.0 | 0.0 | 0.00 | 0.04 | 0.00 | 92 | 1017.0 |
| 20260905080039 | 54 | 87 | 0.0 | 1.7 | 0.00 | 0.05 | 0.00 | 92 | 1016.9 |
| 20260905075516 | 54 | 87 | 0.0 | 1.7 | 0.00 | 0.05 | 0.00 | 92 | 1016.9 |
| 20260905075013 | 54 | 88 | 0.0 | 1.7 | 0.00 | 0.05 | 0.00 | 92 | 1017.0 |
| 20260905074512 | 54 | 30 | 0.0 | 1.7 | 0.00 | 0.05 | 0.00 | 92 | 1017.0 |
| 20260905074007 | 54 | 33 | 0.0 | 1.7 | 0.00 | 0.05 | 0.00 | 92 | 1016.9 |
| 20260905073508 | 54 | 43 | 0.0 | 1.7 | 0.00 | 0.05 | 0.00 | 92 | 1016.9 |
| 20260905073015 | 54 | 76 | 0.0 | 1.7 | 0.00 | 0.05 | 0.00 | 92 | 1017.0 |
| 20260905072512 | 54 | 90 | 0.0 | 1.7 | 0.00 | 0.05 | 0.00 | 91 | 1016.9 |
| 20260905072015 | 54 | 59 | 0.0 | 0.9 | 0.00 | 0.05 | 0.00 | 91 | 1016.9 |
| 20260905071532 | 54 | 337 | 0.0 | 0.0 | 0.00 | 0.05 | 0.00 | 91 | 1016.9 |
| 20260905071013 | 55 | 337 | 0.0 | 0.0 | 0.00 | 0.05 | 0.00 | 91 | 1016.8 |
| 20260905070513 | 55 | 337 | 0.0 | 0.0 | 0.00 | 0.05 | 0.00 | 91 | 1016.8 |
| 20260905070032 | 55 | 337 | 0.0 | 0.0 | 0.00 | 0.05 | 0.00 | 91 | 1016.8 |
| 20260905065520 | 55 | 337 | 0.0 | 0.0 | 0.00 | 0.05 | 0.05 | 91 | 1016.9 |
| 20260905065015 | 55 | 337 | 0.0 | 0.0 | 0.00 | 0.05 | 0.05 | 91 | 1016.9 |
| 20260905064532 | 55 | 337 | 0.0 | 0.0 | 0.00 | 0.05 | 0.05 | 91 | 1016.8 |
| 20260905064019 | 55 | 337 | 0.0 | 0.0 | 0.00 | 0.05 | 0.05 | 91 | 1016.7 |
| 20260905063507 | 55 | 337 | 0.0 | 0.0 | 0.00 | 0.05 | 0.05 | 91 | 1016.7 |
| 20260905063015 | 55 | 337 | 0.0 | 0.0 | 0.00 | 0.05 | 0.05 | 90 | 1016.6 |
| 20260905062511 | 55 | 337 | 0.0 | 0.0 | 0.00 | 0.05 | 0.05 | 91 | 1016.5 |
| 20260905062008 | 55 | 337 | 0.0 | 0.0 | 0.00 | 0.05 | 0.05 | 91 | 1016.5 |
| 20260905061530 | 55 | 340 | 0.0 | 0.0 | 0.00 | 0.05 | 0.05 | 91 | 1016.6 |
| 20260905061011 | 55 | 349 | 0.0 | 0.9 | 0.00 | 0.05 | 0.05 | 91 | 1016.6 |
| 20260905060514 | 55 | 349 | 0.0 | 1.7 | 0.00 | 0.05 | 0.05 | 91 | 1016.8 |
| 20260905060030 | 55 | 340 | 0.0 | 1.7 | 0.00 | 0.05 | 0.05 | 91 | 1016.7 |
| 20260905055513 | 55 | 336 | 0.9 | 1.7 | 0.00 | 0.05 | 0.05 | 91 | 1016.6 |
| 20260905055016 | 56 | 313 | 0.0 | 1.7 | 0.00 | 0.05 | 0.05 | 91 | 1016.7 |
| 20260905054530 | 56 | 311 | 0.9 | 1.7 | 0.01 | 0.05 | 0.05 | 90 | 1016.8 |
| 20260905054017 | 56 | 336 | 0.0 | 1.7 | 0.01 | 0.05 | 0.05 | 90 | 1016.8 |
| 20260905053517 | 56 | 336 | 0.0 | 1.7 | 0.01 | 0.05 | 0.05 | 90 | 1016.8 |
| 20260905053032 | 56 | 335 | 0.0 | 1.7 | 0.01 | 0.05 | 0.05 | 90 | 1016.8 |
| 20260905052515 | 56 | 333 | 0.0 | 1.7 | 0.01 | 0.05 | 0.05 | 90 | 1016.8 |
| 20260905052009 | 56 | 298 | 0.9 | 0.9 | 0.01 | 0.05 | 0.05 | 90 | 1016.7 |
| 20260905051533 | 56 | 300 | 0.9 | 0.9 | 0.01 | 0.05 | 0.05 | 90 | 1016.7 |
| 20260905051010 | 56 | 326 | 0.0 | 1.7 | 0.01 | 0.05 | 0.05 | 90 | 1016.7 |
| 20260905050512 | 56 | 352 | 0.9 | 1.7 | 0.01 | 0.05 | 0.05 | 90 | 1016.7 |
| 20260905050023 | 56 | 351 | 0.0 | 1.7 | 0.01 | 0.05 | 0.05 | 90 | 1016.7 |
| 20260905045514 | 56 | 352 | 0.0 | 1.7 | 0.01 | 0.05 | 0.05 | 90 | 1016.6 |
| 20260905045012 | 56 | 352 | 0.0 | 1.7 | 0.01 | 0.05 | 0.05 | 90 | 1016.5 |
| 20260905044536 | 56 | 298 | 0.0 | 1.7 | 0.00 | 0.04 | 0.04 | 90 | 1016.6 |
| 20260905044016 | 56 | 298 | 0.0 | 1.7 | 0.00 | 0.04 | 0.04 | 90 | 1016.6 |
| 20260905043513 | 56 | 250 | 0.0 | 1.7 | 0.00 | 0.04 | 0.04 | 90 | 1016.5 |
| 20260905043033 | 56 | 234 | 0.0 | 1.7 | 0.00 | 0.04 | 0.04 | 90 | 1016.5 |
| 20260905042518 | 56 | 216 | 0.0 | 1.7 | 0.00 | 0.04 | 0.04 | 90 | 1016.4 |
| 20260905042014 | 56 | 215 | 0.0 | 1.7 | 0.00 | 0.04 | 0.04 | 90 | 1016.4 |
| 20260905041533 | 56 | 217 | 0.0 | 1.7 | 0.00 | 0.04 | 0.04 | 90 | 1016.4 |
| 20260905041018 | 56 | 217 | 0.0 | 1.7 | 0.00 | 0.04 | 0.04 | 89 | 1016.3 |
| 20260905040510 | 57 | 217 | 0.0 | 1.7 | 0.00 | 0.04 | 0.04 | 89 | 1016.3 |
| 20260905040026 | 57 | 217 | 0.0 | 1.7 | 0.00 | 0.04 | 0.04 | 89 | 1016.3 |
| 20260905035513 | 57 | 217 | 0.0 | 0.9 | 0.00 | 0.04 | 0.04 | 88 | 1016.3 |
| 20260905035017 | 57 | 57 | 0.0 | 1.7 | 0.00 | 0.04 | 0.04 | 89 | 1016.3 |
| 20260905034533 | 57 | 57 | 0.0 | 1.7 | 0.00 | 0.04 | 0.04 | 89 | 1016.3 |
| 20260905034013 | 57 | 94 | 0.0 | 1.7 | 0.00 | 0.04 | 0.04 | 89 | 1016.3 |
| 20260905033519 | 57 | 94 | 0.0 | 1.7 | 0.00 | 0.04 | 0.04 | 89 | 1016.4 |
| 20260905033103 | 57 | 94 | 0.0 | 1.7 | 0.01 | 0.04 | 0.04 | 89 | 1016.3 |
| 20260905032516 | 57 | 94 | 0.0 | 1.7 | 0.01 | 0.04 | 0.04 | 88 | 1016.4 |
| 20260905032017 | 57 | 76 | 0.0 | 1.7 | 0.01 | 0.04 | 0.04 | 88 | 1016.3 |
| 20260905031540 | 57 | 101 | 0.0 | 1.7 | 0.01 | 0.04 | 0.04 | 88 | 1016.3 |
| 20260905031017 | 57 | 192 | 0.0 | 0.9 | 0.01 | 0.04 | 0.04 | 88 | 1016.3 |
| 20260905030517 | 57 | 192 | 0.0 | 1.7 | 0.01 | 0.04 | 0.04 | 88 | 1016.2 |
| 20260905030047 | 57 | 173 | 0.0 | 1.7 | 0.01 | 0.04 | 0.04 | 88 | 1016.2 |
| 20260905025510 | 57 | 137 | 0.9 | 3.5 | 0.01 | 0.04 | 0.04 | 88 | 1016.0 |
| 20260905025010 | 57 | 59 | 0.9 | 7.8 | 0.01 | 0.04 | 0.04 | 86 | 1016.0 |
| 20260905024528 | 58 | 65 | 1.7 | 7.8 | 0.01 | 0.04 | 0.04 | 86 | 1015.9 |
| 20260905024012 | 58 | 15 | 2.6 | 7.8 | 0.01 | 0.04 | 0.04 | 87 | 1015.9 |
| 20260905023504 | 58 | 327 | 4.3 | 7.8 | 0.02 | 0.04 | 0.04 | 86 | 1015.8 |
| 20260905023006 | 59 | 333 | 3.5 | 5.2 | 0.01 | 0.03 | 0.03 | 86 | 1015.9 |
| 20260905022504 | 59 | 18 | 1.7 | 4.3 | 0.01 | 0.03 | 0.03 | 86 | 1016.1 |
| 20260905022006 | 59 | 339 | 2.6 | 4.3 | 0.01 | 0.03 | 0.03 | 85 | 1016.1 |
| 20260905021509 | 59 | 343 | 2.6 | 4.3 | 0.01 | 0.03 | 0.03 | 84 | 1016.2 |
| 20260905021011 | 59 | 327 | 1.7 | 3.5 | 0.01 | 0.03 | 0.03 | 83 | 1016.2 |
| 20260905020511 | 59 | 347 | 0.9 | 2.6 | 0.01 | 0.03 | 0.03 | 83 | 1016.2 |
| 20260905020020 | 59 | 338 | 0.9 | 2.6 | 0.01 | 0.03 | 0.03 | 83 | 1016.2 |
| 20260905015508 | 59 | 18 | 0.0 | 2.6 | 0.01 | 0.03 | 0.03 | 82 | 1016.2 |
| 20260905015011 | 60 | 336 | 1.7 | 3.5 | 0.01 | 0.03 | 0.03 | 82 | 1016.2 |
| 20260905014527 | 60 | 82 | 0.9 | 3.5 | 0.01 | 0.03 | 0.03 | 81 | 1016.3 |
| 20260905014014 | 60 | 110 | 0.9 | 3.5 | 0.01 | 0.03 | 0.03 | 79 | 1016.2 |
| 20260905013514 | 60 | 108 | 0.9 | 3.5 | 0.00 | 0.02 | 0.02 | 78 | 1016.2 |
| 20260905013028 | 61 | 103 | 0.9 | 3.5 | 0.00 | 0.02 | 0.02 | 78 | 1016.1 |
| 20260905012504 | 61 | 13 | 0.9 | 4.3 | 0.00 | 0.02 | 0.02 | 78 | 1015.9 |
| 20260905012007 | 62 | 71 | 0.9 | 4.3 | 0.00 | 0.02 | 0.02 | 75 | 1016.0 |
| 20260905011508 | 62 | 116 | 0.0 | 5.2 | 0.00 | 0.02 | 0.02 | 72 | 1016.0 |
| 20260905011009 | 62 | 71 | 1.7 | 7.0 | 0.00 | 0.02 | 0.02 | 70 | 1016.0 |
| 20260905010507 | 63 | 81 | 1.7 | 10.4 | 0.00 | 0.02 | 0.02 | 67 | 1016.0 |
| 20260905010016 | 64 | 125 | 3.5 | 10.4 | 0.00 | 0.02 | 0.02 | 63 | 1016.0 |
| 20260905005508 | 67 | 138 | 2.6 | 11.3 | 0.00 | 0.02 | 0.02 | 59 | 1015.7 |
| 20260905005007 | 68 | 103 | 4.3 | 11.3 | 0.00 | 0.02 | 0.02 | 54 | 1015.6 |
| 20260905004526 | 69 | 157 | 2.6 | 5.2 | 0.00 | 0.02 | 0.02 | 53 | 1015.3 |
| 20260905004010 | 69 | 227 | 2.6 | 4.3 | 0.00 | 0.02 | 0.02 | 53 | 1014.9 |
| 20260905003514 | 69 | 240 | 0.9 | 5.2 | 0.00 | 0.02 | 0.02 | 54 | 1014.7 |
| 20260905003030 | 69 | 262 | 1.7 | 7.0 | 0.00 | 0.02 | 0.02 | 52 | 1014.5 |
| 20260905002515 | 70 | 221 | 2.6 | 7.0 | 0.00 | 0.02 | 0.02 | 52 | 1014.6 |
| 20260905002013 | 70 | 251 | 2.6 | 7.0 | 0.00 | 0.02 | 0.02 | 53 | 1014.5 |
| 20260905001528 | 70 | 126 | 2.6 | 8.7 | 0.00 | 0.02 | 0.02 | 54 | 1014.4 |
| 20260905001004 | 70 | 313 | 3.5 | 8.7 | 0.00 | 0.02 | 0.02 | 53 | 1014.3 |
| 20260905000507 | 70 | 305 | 0.9 | 7.8 | 0.00 | 0.02 | 0.02 | 55 | 1014.3 |
| 20260905000013 | 69 | 167 | 1.7 | 7.8 | 0.00 | 0.02 | 0.02 | 54 | 1014.3 |
| 20260904235508 | 70 | 222 | 3.5 | 7.8 | 0.00 | 0.02 | 0.02 | 54 | 1014.3 |
| 20260904235008 | 70 | 308 | 1.7 | 7.8 | 0.00 | 0.02 | 0.02 | 53 | 1014.3 |
| 20260904234518 | 70 | 234 | 1.7 | 6.1 | 0.00 | 0.02 | 0.02 | 53 | 1014.2 |
| 20260904234014 | 71 | 106 | 1.7 | 8.7 | 0.00 | 0.02 | 0.02 | 53 | 1014.2 |
| 20260904233510 | 71 | 252 | 3.5 | 8.7 | 0.00 | 0.02 | 0.02 | 53 | 1014.2 |
| 20260904233027 | 72 | 244 | 1.7 | 8.7 | 0.00 | 0.02 | 0.02 | 53 | 1014.1 |
| 20260904232513 | 72 | 252 | 3.5 | 6.1 | 0.00 | 0.02 | 0.02 | 52 | 1014.0 |
| 20260904232012 | 72 | 217 | 1.7 | 8.7 | 0.00 | 0.02 | 0.02 | 53 | 1014.0 |
| 20260904231537 | 73 | 287 | 3.5 | 8.7 | 0.00 | 0.02 | 0.02 | 52 | 1014.0 |
| 20260904231017 | 73 | 298 | 3.5 | 8.7 | 0.00 | 0.02 | 0.02 | 51 | 1014.1 |
| 20260904230518 | 73 | 192 | 1.7 | 7.8 | 0.00 | 0.02 | 0.02 | 51 | 1014.0 |
| 20260904230008 | 74 | 250 | 2.6 | 6.1 | 0.00 | 0.02 | 0.02 | 51 | 1014.0 |
| 20260904225506 | 74 | 273 | 1.7 | 7.0 | 0.00 | 0.02 | 0.02 | 52 | 1014.0 |
| 20260904225006 | 74 | 242 | 3.5 | 8.7 | 0.00 | 0.02 | 0.02 | 52 | 1013.9 |
| 20260904224523 | 74 | 333 | 2.6 | 8.7 | 0.00 | 0.02 | 0.02 | 54 | 1013.9 |
| 20260904224008 | 74 | 339 | 3.5 | 9.6 | 0.00 | 0.02 | 0.02 | 53 | 1013.9 |
| 20260904223513 | 74 | 288 | 5.2 | 9.6 | 0.00 | 0.02 | 0.02 | 52 | 1013.9 |
| 20260904223024 | 74 | 279 | 1.7 | 6.1 | 0.00 | 0.02 | 0.02 | 54 | 1013.8 |
| 20260904222510 | 74 | 284 | 2.6 | 8.7 | 0.00 | 0.02 | 0.02 | 52 | 1013.8 |
| 20260904222014 | 75 | 271 | 3.5 | 8.7 | 0.00 | 0.02 | 0.02 | 53 | 1013.8 |
| 20260904221530 | 75 | 284 | 3.5 | 10.4 | 0.00 | 0.02 | 0.02 | 53 | 1013.8 |
| 20260904221017 | 75 | 211 | 3.5 | 10.4 | 0.00 | 0.02 | 0.02 | 52 | 1013.8 |
| 20260904220516 | 74 | 221 | 1.7 | 7.8 | 0.00 | 0.02 | 0.02 | 53 | 1013.9 |
| 20260904220038 | 74 | 277 | 2.6 | 7.8 | 0.00 | 0.02 | 0.02 | 52 | 1013.8 |
| 20260904215517 | 74 | 179 | 1.7 | 6.1 | 0.00 | 0.02 | 0.02 | 54 | 1013.8 |
| 20260904215004 | 74 | 282 | 3.5 | 6.1 | 0.00 | 0.02 | 0.02 | 54 | 1013.9 |
| 20260904214514 | 73 | 148 | 2.6 | 7.0 | 0.00 | 0.02 | 0.02 | 52 | 1013.9 |
| 20260904214010 | 73 | 297 | 3.5 | 9.6 | 0.00 | 0.02 | 0.02 | 54 | 1013.9 |
| 20260904213507 | 74 | 184 | 3.5 | 9.6 | 0.00 | 0.02 | 0.02 | 55 | 1014.0 |
| 20260904213028 | 73 | 272 | 4.3 | 8.7 | 0.00 | 0.02 | 0.02 | 56 | 1014.0 |
| 20260904212513 | 73 | 254 | 3.5 | 8.7 | 0.00 | 0.02 | 0.02 | 55 | 1014.0 |
| 20260904212012 | 73 | 229 | 4.3 | 7.8 | 0.00 | 0.02 | 0.02 | 57 | 1013.9 |
| 20260904211528 | 73 | 265 | 3.5 | 9.6 | 0.00 | 0.02 | 0.02 | 56 | 1014.0 |
| 20260904211015 | 73 | 280 | 5.2 | 9.6 | 0.00 | 0.02 | 0.02 | 56 | 1014.0 |
| 20260904210516 | 73 | 250 | 1.7 | 7.0 | 0.00 | 0.02 | 0.02 | 58 | 1013.9 |
| 20260904210033 | 73 | 219 | 3.5 | 6.1 | 0.00 | 0.02 | 0.02 | 59 | 1014.0 |
| 20260904205518 | 73 | 251 | 2.6 | 6.1 | 0.00 | 0.02 | 0.02 | 54 | 1013.9 |
| 20260904205017 | 73 | 341 | 2.6 | 7.0 | 0.00 | 0.02 | 0.02 | 55 | 1013.9 |
| 20260904204535 | 73 | 67 | 0.9 | 8.7 | 0.00 | 0.02 | 0.02 | 52 | 1013.8 |
| 20260904204016 | 74 | 296 | 1.7 | 8.7 | 0.00 | 0.02 | 0.02 | 54 | 1013.8 |
| 20260904203510 | 73 | 298 | 2.6 | 7.0 | 0.00 | 0.02 | 0.02 | 54 | 1013.8 |
| 20260904203019 | 72 | 238 | 2.6 | 7.8 | 0.00 | 0.02 | 0.02 | 57 | 1013.8 |
| 20260904202512 | 71 | 313 | 1.7 | 7.8 | 0.00 | 0.02 | 0.02 | 62 | 1013.9 |
| 20260904202010 | 70 | 261 | 2.6 | 6.1 | 0.00 | 0.02 | 0.02 | 58 | 1014.0 |
| 20260904201525 | 70 | 215 | 1.7 | 6.1 | 0.00 | 0.02 | 0.02 | 61 | 1013.9 |
| 20260904201015 | 69 | 349 | 0.9 | 6.1 | 0.00 | 0.02 | 0.02 | 67 | 1013.9 |
| 20260904200515 | 68 | 254 | 1.7 | 6.1 | 0.00 | 0.02 | 0.02 | 66 | 1014.0 |
| 20260904200042 | 68 | 328 | 2.6 | 7.0 | 0.00 | 0.02 | 0.02 | 64 | 1014.0 |
| 20260904195519 | 68 | 207 | 0.9 | 7.0 | 0.00 | 0.02 | 0.02 | 65 | 1013.9 |
| 20260904195015 | 68 | 288 | 2.6 | 7.0 | 0.00 | 0.02 | 0.02 | 66 | 1013.9 |
| 20260904194535 | 68 | 280 | 2.6 | 6.1 | 0.00 | 0.02 | 0.02 | 65 | 1014.0 |
| 20260904194014 | 68 | 232 | 3.5 | 6.1 | 0.00 | 0.02 | 0.02 | 65 | 1014.1 |
| 20260904193520 | 67 | 317 | 0.9 | 3.5 | 0.00 | 0.02 | 0.02 | 70 | 1013.9 |
| 20260904193038 | 67 | 229 | 1.7 | 3.5 | 0.00 | 0.02 | 0.02 | 68 | 1014.1 |
| 20260904192508 | 66 | 281 | 0.9 | 1.7 | 0.00 | 0.02 | 0.02 | 70 | 1014.0 |
| 20260904192007 | 66 | 171 | 0.0 | 3.5 | 0.00 | 0.02 | 0.02 | 67 | 1014.0 |
| 20260904191536 | 66 | 215 | 1.7 | 4.3 | 0.00 | 0.02 | 0.02 | 68 | 1014.1 |
| 20260904191011 | 67 | 224 | 1.7 | 4.3 | 0.00 | 0.02 | 0.02 | 1014.1 | |
| 20260904190513 | 67 | 231 | 0.9 | 3.5 | 0.00 | 0.02 | 0.02 | 70 | 1014.1 |
| 20260904190028 | 67 | 226 | 0.9 | 2.6 | 0.00 | 0.02 | 0.02 | 70 | 1014.1 |
| 20260904185514 | 66 | 165 | 0.9 | 2.6 | 0.00 | 0.02 | 0.02 | 67 | 1014.1 |
| 20260904185014 | 65 | 31 | 0.0 | 4.3 | 0.00 | 0.02 | 0.02 | 70 | 1014.1 |
| 20260904184533 | 65 | 213 | 1.7 | 4.3 | 0.00 | 0.02 | 0.02 | 71 | 1014.3 |
| 20260904184017 | 65 | 208 | 1.7 | 4.3 | 0.00 | 0.02 | 0.02 | 70 | 1014.2 |
| 20260904183516 | 65 | 332 | 0.9 | 4.3 | 0.00 | 0.02 | 0.02 | 70 | 1014.2 |
| 20260904183038 | 65 | 263 | 1.7 | 3.5 | 0.00 | 0.02 | 0.02 | 69 | 1014.2 |
| 20260904182517 | 65 | 327 | 0.9 | 2.6 | 0.00 | 0.02 | 0.02 | 68 | 1014.2 |
| 20260904182021 | 66 | 325 | 1.7 | 3.5 | 0.00 | 0.02 | 0.02 | 68 | 1014.1 |
| 20260904181538 | 66 | 297 | 0.9 | 3.5 | 0.00 | 0.02 | 0.02 | 68 | 1014.1 |
| 20260904181009 | 66 | 260 | 1.7 | 3.5 | 0.00 | 0.02 | 0.02 | 68 | 1014.1 |
| 20260904180514 | 66 | 302 | 1.7 | 7.0 | 0.00 | 0.02 | 0.02 | 70 | 1014.0 |
| 20260904180030 | 66 | 5 | 2.6 | 7.0 | 0.00 | 0.02 | 0.02 | 70 | 1014.0 |
| 20260904175513 | 65 | 245 | 2.6 | 5.2 | 0.00 | 0.02 | 0.02 | 72 | 1013.9 |
| 20260904175016 | 64 | 234 | 1.7 | 3.5 | 0.00 | 0.02 | 0.02 | 71 | 1013.9 |
| 20260904174533 | 64 | 170 | 0.0 | 5.2 | 0.00 | 0.02 | 0.02 | 72 | 1013.9 |
| 20260904174016 | 63 | 180 | 2.6 | 5.2 | 0.00 | 0.02 | 0.02 | 73 | 1014.0 |
| 20260904173505 | 63 | 49 | 0.9 | 4.3 | 0.00 | 0.02 | 0.02 | 74 | 1014.0 |
| 20260904173012 | 62 | 202 | 0.9 | 5.2 | 0.00 | 0.02 | 0.02 | 76 | 1014.1 |
| 20260904172504 | 62 | 140 | 0.9 | 5.2 | 0.00 | 0.02 | 0.02 | 77 | 1014.1 |
| 20260904172011 | 61 | 70 | 0.0 | 2.6 | 0.00 | 0.02 | 0.02 | 78 | 1014.0 |
| 20260904171520 | 61 | 238 | 0.0 | 3.5 | 0.00 | 0.02 | 0.02 | 77 | 1014.0 |
| 20260904171008 | 61 | 55 | 2.6 | 3.5 | 0.00 | 0.02 | 0.02 | 78 | 1013.9 |
| 20260904170512 | 60 | 329 | 0.9 | 3.5 | 0.00 | 0.02 | 0.02 | 81 | 1013.9 |
| 20260904170026 | 60 | 15 | 0.0 | 2.6 | 0.00 | 0.02 | 0.02 | 81 | 1013.9 |
| 20260904165514 | 59 | 205 | 0.9 | 2.6 | 0.00 | 0.02 | 0.02 | 83 | 1013.9 |
| 20260904165014 | 59 | 166 | 0.0 | 2.6 | 0.00 | 0.02 | 0.02 | 83 | 1013.9 |
| 20260904164528 | 58 | 86 | 0.9 | 2.6 | 0.00 | 0.02 | 0.02 | 82 | 1014.0 |
| 20260904164006 | 58 | 127 | 0.9 | 3.5 | 0.00 | 0.02 | 0.02 | 84 | 1014.0 |
| 20260904163503 | 58 | 126 | 0.0 | 3.5 | 0.00 | 0.02 | 0.02 | 84 | 1014.0 |
| 20260904163012 | 58 | 134 | 0.9 | 2.6 | 0.00 | 0.02 | 0.02 | 84 | 1014.0 |
| 20260904162505 | 58 | 87 | 0.9 | 3.5 | 0.00 | 0.02 | 0.02 | 85 | 1014.0 |
| 20260904162006 | 57 | 123 | 0.9 | 3.5 | 0.00 | 0.02 | 0.02 | 86 | 1014.0 |
| 20260904161516 | 57 | 138 | 0.9 | 3.5 | 0.00 | 0.02 | 0.02 | 87 | 1014.1 |
| 20260904161008 | 56 | 107 | 0.9 | 3.5 | 0.00 | 0.02 | 0.02 | 87 | 1014.1 |
| 20260904160511 | 56 | 101 | 0.9 | 3.5 | 0.00 | 0.02 | 0.02 | 88 | 1014.1 |
| 20260904160025 | 56 | 97 | 0.9 | 1.7 | 0.00 | 0.02 | 0.02 | 91 | 1014.1 |
| 20260904155512 | 55 | 115 | 0.9 | 2.6 | 0.00 | 0.02 | 0.02 | 92 | 1014.0 |
| 20260904155013 | 55 | 64 | 1.7 | 2.6 | 0.00 | 0.02 | 0.02 | 92 | 1013.9 |
| 20260904154530 | 54 | 111 | 0.0 | 1.7 | 0.00 | 0.02 | 0.02 | 93 | 1013.9 |
| 20260904154017 | 54 | 70 | 0.0 | 2.6 | 0.00 | 0.02 | 0.02 | 93 | 1013.9 |
| 20260904153514 | 54 | 125 | 0.9 | 2.6 | 0.00 | 0.02 | 0.02 | 93 | 1014.0 |
| 20260904153018 | 54 | 18 | 0.0 | 1.7 | 0.00 | 0.02 | 0.02 | 93 | 1013.9 |
| 20260904152504 | 54 | 137 | 0.0 | 1.7 | 0.00 | 0.02 | 0.02 | 93 | 1013.9 |
| 20260904152009 | 54 | 81 | 0.0 | 1.7 | 0.00 | 0.02 | 0.02 | 93 | 1013.8 |
| 20260904151512 | 53 | 32 | 0.0 | 2.6 | 0.00 | 0.02 | 0.02 | 93 | 1013.8 |
| 20260904151011 | 53 | 26 | 0.9 | 2.6 | 0.00 | 0.02 | 0.02 | 93 | 1013.7 |
| 20260904150507 | 53 | 56 | 0.0 | 2.6 | 0.00 | 0.02 | 0.02 | 94 | 1013.7 |
| 20260904150025 | 53 | 22 | 0.9 | 1.7 | 0.00 | 0.02 | 0.02 | 93 | 1013.6 |
| 20260904145512 | 53 | 38 | 0.0 | 1.7 | 0.00 | 0.02 | 0.02 | 93 | 1013.6 |
| 20260904145011 | 53 | 17 | 0.0 | 1.7 | 0.00 | 0.02 | 0.02 | 93 | 1013.5 |
| 20260904144524 | 52 | 5 | 0.0 | 1.7 | 0.00 | 0.02 | 0.02 | 93 | 1013.5 |
| 20260904144016 | 52 | 58 | 0.0 | 1.7 | 0.00 | 0.02 | 0.02 | 93 | 1013.4 |
| 20260904143513 | 52 | 76 | 0.0 | 1.7 | 0.00 | 0.02 | 0.02 | 93 | 1013.3 |
| 20260904143033 | 52 | 56 | 0.0 | 2.6 | 0.00 | 0.02 | 0.02 | 93 | 1013.3 |
| 20260904142518 | 52 | 64 | 0.9 | 2.6 | 0.00 | 0.02 | 0.02 | 93 | 1013.3 |
| 20260904142016 | 52 | 86 | 0.9 | 1.7 | 0.00 | 0.02 | 0.02 | 93 | 1013.3 |
| 20260904141514 | 52 | 69 | 0.0 | 1.7 | 0.00 | 0.02 | 0.02 | 93 | 1013.3 |
| 20260904141003 | 52 | 61 | 0.9 | 1.7 | 0.00 | 0.02 | 0.02 | 92 | 1013.3 |
| 20260904140508 | 52 | 78 | 0.0 | 1.7 | 0.00 | 0.03 | 0.02 | 92 | 1013.3 |
| 20260904140029 | 53 | 86 | 0.0 | 1.7 | 0.00 | 0.03 | 0.02 | 92 | 1013.2 |
| 20260904135511 | 53 | 90 | 0.0 | 1.7 | 0.00 | 0.03 | 0.02 | 92 | 1013.1 |
| 20260904135012 | 53 | 82 | 0.0 | 1.7 | 0.00 | 0.03 | 0.02 | 92 | 1013.0 |
| 20260904134534 | 53 | 82 | 0.0 | 1.7 | 0.00 | 0.03 | 0.02 | 92 | 1012.9 |